This is the latest recevied weather packets stored in our database for station/object EB2EMZ-3. If no packets are shown the sender has not sent any weather packets the latest 1 day(s).
| Time | Temp. | Humidity | Pressure | Rain* | Wind** | Luminosity | Snow |
|---|---|---|---|---|---|---|---|
| 1777988375 | 20.56° C | 59% | 1009.5 hPa | 0 mm | 1.79 m/s, 112° | - | - |
| 1777988075 | 20.56° C | 59% | 1009.5 hPa | 0 mm | 0 m/s | - | - |
| 1777987775 | 20.56° C | 58% | 1009.7 hPa | 0 mm | 0 m/s | - | - |
| 1777987475 | 21.11° C | 58% | 1009.6 hPa | 0 mm | 3.13 m/s, 90° | - | - |
| 1777987175 | 21.11° C | 58% | 1009.6 hPa | 0 mm | 3.13 m/s, 90° | - | - |
| 1777986875 | 21.11° C | 58% | 1009.5 hPa | 0 mm | 0.45 m/s, 157° | - | - |
| 1777986575 | 21.11° C | 58% | 1009.8 hPa | 0 mm | 2.68 m/s, 135° | - | - |
| 1777986275 | 21.11° C | 58% | 1009.7 hPa | 0 mm | 2.68 m/s, 112° | - | - |
| 1777985975 | 21.11° C | 57% | 1009.7 hPa | 0 mm | 0 m/s | - | - |
| 1777985675 | 21.11° C | 55% | 1009.8 hPa | 0 mm | 1.79 m/s, 157° | - | - |
| 1777985375 | 21.11° C | 55% | 1009.7 hPa | 0 mm | 3.58 m/s, 112° | - | - |
| 1777985075 | 21.11° C | 56% | 1009.9 hPa | 0 mm | 4.47 m/s, 112° | - | - |
| 1777984775 | 21.11° C | 58% | 1009.8 hPa | 0 mm | 4.02 m/s, 135° | - | - |
| 1777984475 | 21.11° C | 58% | 1009.8 hPa | 0 mm | 4.02 m/s, 247° | - | - |
| 1777984175 | 21.11° C | 58% | 1010 hPa | 0 mm | 0.89 m/s, 225° | - | - |
| 1777983875 | 21.11° C | 59% | 1010 hPa | 0 mm | 2.24 m/s, 225° | - | - |
| 1777983575 | 21.11° C | 59% | 1010.2 hPa | 0 mm | 0.89 m/s, 180° | - | - |
| 1777983275 | 21.11° C | 59% | 1010.1 hPa | 0 mm | 3.13 m/s, 247° | - | - |
| 1777982975 | 21.11° C | 60% | 1010 hPa | 0 mm | 2.68 m/s, 225° | - | - |
| 1777982675 | 21.11° C | 60% | 1010.1 hPa | 0 mm | 2.68 m/s, 225° | - | - |
| 1777982375 | 20.56° C | 60% | 1010.3 hPa | 0 mm | 1.79 m/s, 202° | - | - |
| 1777982075 | 20.56° C | 60% | 1010.3 hPa | 0 mm | 0.45 m/s, 225° | - | - |
| 1777981775 | 20.56° C | 60% | 1010.4 hPa | 0 mm | 0 m/s | - | - |
| 1777981475 | 20.56° C | 60% | 1010.4 hPa | 0 mm | 0 m/s | - | - |
| 1777981175 | 20.56° C | 61% | 1010.8 hPa | 0 mm | 2.24 m/s, 225° | - | - |
* Rain latest hour (hover to see other rain measurements)
** Current wind speed in m/s (hover to see current wind gust speed)